Hourly Data Report for July 02, 2022

SAINT JOHN A
NEW BRUNSWICK
Current Station Operator: NAVCAN

45°18'58.000" N
65°53'24.000" W
108.80 m
8104901
71609
YSJ

Download Data

Hourly Data (July 2022)
Hourly Data Report for July 2, 2022
TIME
LST
Temp Definition
°C
Dew Point Definition
°C
Rel Hum Definition
%
Precip. Amount Definition
mm

Wind Dir Definition
10's deg

Wind Spd Definition
km/h
Visibility Definition
km
Stn Press Definition
kPa
Hmdx Definition


Wind Chill Definition


Weather Definition


00:00 14.5 14.5 100   15 13 0.8 99.94     Fog
01:00 14.5 14.5 100   8 18 1.2 99.86     Rain Showers, Fog
02:00 14.6 14.6 100   17 9 0.8 99.87     Rain Showers, Fog
03:00 15.0 15.0 100   16 12 0.8 99.80     Rain, Fog
04:00 15.6 15.6 100   16 18 0.6 99.79     Rain, Fog
05:00 15.2 15.2 100   15 16 0.6 99.75     Rain, Fog
06:00 15.5 15.5 100   16 14 0.4 99.77     Rain, Fog
07:00 15.9 15.9 100   16 13 0.4 99.70     Fog
08:00 16.4 16.4 100   21 22 0.4 99.73     Fog
09:00 16.1 16.1 100   20 22 0.8 99.80     Thunderstorms,Rain Showers, Fog
10:00 15.7 15.7 100   21 17 4.0 99.73     Rain Showers, Fog
11:00 15.9 15.9 100   14 9 6.4 99.67     Rain, Fog
12:00 16.2 16.2 100   19 13 4.8 99.70     Rain, Fog
13:00 17.4 17.4 100   19 15 6.4 99.63     Rain, Fog
14:00 17.4 17.4 100   21 14 9.7 99.66     Fog
15:00 17.0 16.6 97   20 24 2.4 99.64     Fog
16:00 16.4 16.4 100   21 17 0.8 99.60     Fog
17:00 17.2 16.7 97   21 19 2.4 99.57     Fog
18:00 17.3 16.2 93   20 18 1.2 99.56     Fog
19:00 15.6 15.5 99   18 12 0.8 99.58     Fog
20:00 14.5 14.5 100   19 8 0.6 99.65     Fog
21:00 14.1 14.1 100   20 13 0.6 99.70     Fog
22:00 13.9 13.9 100   18 10 0.4 99.74     Fog
23:00 13.8 13.8 100   23 7 0.4 99.74     Fog

Notes on Data Quality.

Legend

  • E = Estimated
  • M = Missing
  • NA = Not Available*
  • [empty] = Indicates an unobserved value
Date modified: